User: anonymous   Login
Location: Unspecified
(0.0000°N, 0.0000°E)
Time: 10:54:45
(UTC+00:00)
Language:

KUIPER-00096 - Orbit

View from above orbital plane
View from above orbital plane
View from above satellite
View from above satellite

Ground track
Ground track

The orbit is defined by the following mean orbital elements,

1 65135U          26145.45884565 +.00000000 +00000-0 +28902-3 0 00000
2 65135  51.8978 178.6030 0000386  77.3115 282.7891 14.79931831    09
Epoch (UTC): 25 May 2026 11:00:44
Eccentricity: 0.0000386
inclination: 51.8978°
perigee height: 629 km
apogee height: 630 km
right ascension of ascending node: 178.6030°
argument of perigee: 77.3115°
revolutions per day: 14.79931831
mean anomaly at epoch: 282.7891°

The dashed part of the orbit path shows where the satellite is in the earth's shadow,  

DLR